Stations météo

réclame
Mon MeteoGroup
Landsberg, Allemagne (10857): Température de l'air & dewpoint: 17.02.2018 07:00:00 - 23.02.2018 07:00:00 (CET)Landsberg, Allemagne (10857): Température de l'air -5cm: 17.02.2018 07:00:00 - 23.02.2018 07:00:00 (CET)Landsberg, Allemagne (10857): Température de l'air -20cm & Température de l'air -100cm: 17.02.2018 07:00:00 - 23.02.2018 07:00:00 (CET)Landsberg, Allemagne (10857): Vitesse du vent & gusts: 17.02.2018 07:00:00 - 23.02.2018 07:00:00 (CET)Landsberg, Allemagne (10857): Direction du vent: 17.02.2018 07:00:00 - 23.02.2018 07:00:00 (CET)Landsberg, Allemagne (10857): reduced air pressure: 17.02.2018 07:00:00 - 23.02.2018 07:00:00 (CET)Landsberg, Allemagne (10857): visibility: 17.02.2018 07:00:00 - 23.02.2018 07:00:00 (CET)
Date & Time tt [°C] td [°C] tt -5cm [°C] tt -20cm [°C] tt -100cm [°C] ff [km/h] ff [knt] fx [km/h] fx [knt] dd ppp [hPa] vv [km]
23.02.2018 07:00:00 -5,1 -6,7 - - - 22 12 - - NE 1016,5 -
23.02.2018 06:00:00 -5,1 -7,0 - - - 22 12 - - NE 1016,5 -
23.02.2018 05:00:00 -5,0 -7,0 - - - 22 12 - - ENE 1016,4 -
23.02.2018 04:00:00 -4,9 -7,1 - - - 22 12 - - NE 1016,6 -
23.02.2018 03:00:00 -4,7 -7,1 - - - 25 14 - - NE 1016,9 -
23.02.2018 02:00:00 -4,4 -6,8 - - - 22 12 - - NE 1017,0 -
23.02.2018 01:00:00 -4,2 -6,7 - - - 22 12 - - ENE 1017,1 -
23.02.2018 00:00:00 -4,0 -6,7 - - - 25 14 - - ENE 1017,2 -
22.02.2018 23:00:00 -4,1 -6,3 - - - 22 12 - - ENE 1017,4 -
22.02.2018 22:00:00 -4,1 -6,1 - - - 22 12 - - ENE 1017,4 -
22.02.2018 21:00:00 -4,1 -6,2 - - - 25 14 - - NE 1017,5 -
22.02.2018 20:00:00 -4,2 -6,5 - - - 25 14 47 25 ENE 1017,6 -
22.02.2018 19:00:00 -4,0 -6,7 - - - 29 16 - - ENE 1017,7 -
22.02.2018 18:00:00 -3,9 -6,5 - - - 25 14 - - ENE 1017,4 -
22.02.2018 17:00:00 -3,8 -6,2 - - - 22 12 - - ENE 1017,0 -
22.02.2018 16:00:00 -3,6 -6,4 - - - 29 16 - - NE 1016,7 -
22.02.2018 15:00:00 -3,5 -6,2 0,2 0,7 - 29 16 - - NE 1016,8 -
22.02.2018 14:00:00 -3,5 -6,8 - - - 29 16 - - ENE 1016,8 -
22.02.2018 13:00:00 -3,8 -6,8 - - - 25 14 - - ENE 1016,9 -
22.02.2018 12:00:00 -4,3 -6,7 - - - 25 14 - - NE 1017,2 -
22.02.2018 11:00:00 -5,1 -7,2 - - - 25 14 - - NNE 1017,5 -
22.02.2018 10:00:00 -5,2 -7,2 - - - 29 16 - - NE 1017,4 -
22.02.2018 09:00:00 -4,6 -6,8 - - - 29 16 - - NE 1017,4 -
22.02.2018 08:00:00 -4,7 -6,4 0,2 0,7 3,3 25 14 - - NE 1017,3 -
22.02.2018 07:00:00 -5,2 -6,8 - - - 22 12 - - NNE 1017,4 -
22.02.2018 06:00:00 -5,3 -7,0 - - - 22 12 - - NE 1017,4 -
22.02.2018 05:00:00 -5,6 -7,5 - - - 22 12 - - NE 1017,5 -
22.02.2018 04:00:00 -6,4 -7,9 - - - 18 10 - - NE 1018,3 -
22.02.2018 03:00:00 -6,7 -7,9 - - - 14 8 - - NNE 1018,8 -
22.02.2018 02:00:00 -6,3 -7,3 - - - 11 6 - - NNE 1019,2 -
22.02.2018 01:00:00 -6,3 -7,5 - - - 7 4 - - NE 1019,7 -
22.02.2018 00:00:00 -5,6 -7,2 - - - 14 8 - - NNE 1019,8 -
21.02.2018 23:00:00 -4,6 -6,6 - - - 14 8 - - NNE 1019,8 -
21.02.2018 22:00:00 -4,3 -5,6 - - - 11 6 - - NE 1019,9 -
21.02.2018 21:00:00 -4,0 -5,0 - - - 11 6 - - N 1020,1 -
21.02.2018 20:00:00 -4,2 -5,5 - - - 7 4 - - NE 1020,4 -
21.02.2018 19:00:00 -3,9 -5,3 - - - 7 4 - - N 1020,4 -
21.02.2018 18:00:00 -4,1 -5,9 - - - 7 4 - - NNE 1020,2 -
21.02.2018 17:00:00 -2,9 -5,4 - - - 11 6 - - N 1019,8 -
21.02.2018 16:00:00 -2,3 -4,8 - - - 14 8 - - NE 1019,5 -
21.02.2018 15:00:00 -2,8 -5,1 0,3 0,7 - 14 8 - - NNE 1020,0 -
21.02.2018 14:00:00 -2,8 -5,0 - - - 14 8 - - N 1020,0 -
21.02.2018 13:00:00 -3,2 -4,9 - - - 14 8 - - N 1020,2 -
21.02.2018 12:00:00 -3,3 -4,9 - - - 11 6 - - N 1020,5 -
21.02.2018 11:00:00 -3,8 -4,7 - - - 14 8 - - N 1020,7 -
21.02.2018 10:00:00 -3,9 -4,6 - - - 14 8 - - N 1020,7 -
21.02.2018 09:00:00 -4,1 -4,7 - - - 14 8 - - NNE 1020,6 -
21.02.2018 08:00:00 -3,7 -4,3 0,3 0,8 3,4 11 6 - - NNE 1020,4 -
21.02.2018 07:00:00 -3,6 -4,1 - - - 11 6 - - NNE 1020,1 -
21.02.2018 06:00:00 -3,7 -4,3 - - - 11 6 - - N 1019,9 -
21.02.2018 05:00:00 -4,0 -4,6 - - - 11 6 - - N 1019,8 -
21.02.2018 04:00:00 -4,2 -4,7 - - - 7 4 - - N 1019,8 -
21.02.2018 03:00:00 -4,3 -4,9 - - - 4 2 - - NNE 1019,5 -
21.02.2018 02:00:00 -4,3 -5,0 - - - 4 2 - - N 1019,5 -
21.02.2018 01:00:00 -4,4 -5,1 - - - 7 4 - - N 1019,4 -
21.02.2018 00:00:00 -4,3 -5,0 - - - 7 4 - - NNE 1019,2 -
20.02.2018 23:00:00 -4,2 -4,9 - - - 7 4 - - NE 1019,1 -
20.02.2018 22:00:00 -4,5 -5,2 - - - 7 4 - - NE 1019,1 -
20.02.2018 21:00:00 -4,3 -5,0 - - - 7 4 - - N 1018,7 -
20.02.2018 20:00:00 -3,8 -4,6 - - - 7 4 - - NNE 1018,3 -
20.02.2018 19:00:00 -3,6 -4,6 - - - 11 6 - - N 1018,1 -
20.02.2018 18:00:00 -3,4 -4,6 - - - 11 6 - - N 1017,6 -
20.02.2018 17:00:00 -2,7 -4,7 - - - 7 4 - - NNE 1017,0 -
20.02.2018 16:00:00 -2,1 -5,8 - - - 7 4 - - NNE 1016,5 -
20.02.2018 15:00:00 -1,8 -6,3 0,3 0,7 - 7 4 - - N 1016,2 -
20.02.2018 14:00:00 -1,6 -6,7 - - - 7 4 - - NE 1016,2 -
20.02.2018 13:00:00 -1,8 -6,5 - - - 0 0 - - N 1016,4 -
20.02.2018 12:00:00 -2,5 -6,0 - - - 4 2 - - W 1017,0 -
20.02.2018 11:00:00 -3,1 -5,5 - - - 7 4 - - WNW 1017,2 -
20.02.2018 10:00:00 -3,2 -5,1 - - - 7 4 - - W 1017,2 -
20.02.2018 09:00:00 -3,9 -5,1 - - - 7 4 - - NW 1017,2 -
20.02.2018 08:00:00 -4,2 -5,1 0,3 0,7 3,4 11 6 - - SW 1017,3 -
20.02.2018 07:00:00 -4,1 -5,0 - - - 4 2 - - E 1017,0 -
20.02.2018 06:00:00 -4,0 -4,8 - - - 7 4 - - NE 1017,1 -
20.02.2018 05:00:00 -3,9 -4,7 - - - 4 2 - - NE 1017,1 -
20.02.2018 04:00:00 -4,0 -4,6 - - - 11 6 - - NE 1017,0 -
20.02.2018 03:00:00 -3,9 -4,5 - - - 7 4 - - NE 1017,3 -
20.02.2018 02:00:00 -3,9 -4,5 - - - 7 4 - - N 1017,5 -
20.02.2018 01:00:00 -3,7 -4,4 - - - 7 4 - - N 1017,8 -
20.02.2018 00:00:00 -3,6 -4,3 - - - 4 2 - - N 1018,1 -
19.02.2018 23:00:00 -3,6 -4,3 - - - 4 2 - - NNE 1018,1 -
19.02.2018 22:00:00 -3,4 -4,2 - - - 4 2 - - N 1018,5 -
19.02.2018 21:00:00 -3,2 -4,2 - - - 4 2 - - NNE 1018,7 -
19.02.2018 20:00:00 -3,0 -4,0 - - - 7 4 - - ENE 1018,9 -
19.02.2018 19:00:00 -3,0 -3,9 - - - 7 4 - - NNE 1019,2 -
19.02.2018 18:00:00 -2,9 -4,1 - - - 7 4 - - NNE 1019,3 -
19.02.2018 17:00:00 -2,5 -4,1 - - - 7 4 - - NNE 1019,1 -
19.02.2018 16:00:00 -2,3 -4,1 - - - 7 4 - - NNE 1019,4 -
19.02.2018 15:00:00 -1,9 -4,0 0,3 0,8 - 7 4 - - NNE 1019,6 -
19.02.2018 14:00:00 -1,8 -3,9 - - - 11 6 - - N 1020,0 -
19.02.2018 13:00:00 -1,5 -4,0 - - - 7 4 - - N 1020,4 -
19.02.2018 12:00:00 -1,9 -4,3 - - - 7 4 - - N 1020,9 -
19.02.2018 11:00:00 -2,2 -4,0 - - - 7 4 - - NNE 1021,3 -
19.02.2018 10:00:00 -2,5 -3,9 - - - 7 4 - - NNE 1021,7 -
19.02.2018 09:00:00 -3,0 -4,1 - - - 7 4 - - N 1022,1 -
19.02.2018 08:00:00 -3,2 -3,9 0,3 0,7 3,4 7 4 - - N 1022,2 75
19.02.2018 07:00:00 -3,6 -4,4 - - - 4 2 - - NNE 1022,4 12
19.02.2018 06:00:00 -3,6 -4,4 - - - 7 4 - - NE 1022,6 13
19.02.2018 05:00:00 -3,3 -4,2 - - - 7 4 - - ENE 1023,2 30
19.02.2018 04:00:00 -3,3 -4,2 - - - 7 4 - - N 1023,3 15
19.02.2018 03:00:00 -3,0 -4,0 - - - 7 4 - - ENE 1023,6 50
19.02.2018 02:00:00 -3,0 -3,9 - - - 7 4 - - ENE 1024,0 50
19.02.2018 01:00:00 -3,0 -3,8 - - - 7 4 - - N 1024,3 30
19.02.2018 00:00:00 -3,6 -4,6 - - - 7 4 - - ENE 1025,0 70
18.02.2018 23:00:00 -2,0 -3,7 - - - 11 6 - - E 1025,2 75
18.02.2018 22:00:00 -1,8 -3,0 - - - 11 6 - - E 1025,6 75
18.02.2018 21:00:00 -1,9 -3,4 - - - 11 6 - - ENE 1026,4 75
18.02.2018 20:00:00 -1,7 -3,3 - - - 11 6 - - ENE 1026,8 75
18.02.2018 19:00:00 -1,6 -3,2 - - - 11 6 - - E 1027,1 75
18.02.2018 18:00:00 -1,6 -2,8 - - - 14 8 - - ENE 1027,2 60
18.02.2018 17:00:00 -0,7 -2,0 - - - 11 6 - - NE 1027,0 75
18.02.2018 16:00:00 -0,5 -1,7 - - - 11 6 - - NNE 1027,1 8
18.02.2018 15:00:00 -0,3 -1,8 0,2 0,8 - 11 6 - - NE 1026,9 50
18.02.2018 14:00:00 -0,3 -2,2 - - - 7 4 - - ENE 1027,1 75
18.02.2018 13:00:00 -0,8 -2,2 - - - 11 6 - - ENE 1027,6 75
18.02.2018 12:00:00 -0,7 -1,7 - - - 7 4 - - N 1028,1 9
18.02.2018 11:00:00 -1,4 -2,0 - - - 7 4 - - NNE 1028,2 1,1
18.02.2018 10:00:00 -1,7 -2,2 - - - 7 4 - - N 1028,0 0,1
18.02.2018 09:00:00 -2,2 -2,7 - - - 7 4 - - N 1028,0 0,3
18.02.2018 08:00:00 -2,5 -2,9 0,2 0,8 3,4 7 4 - - N 1028,0 0,8
18.02.2018 07:00:00 -2,6 -3,1 - - - 7 4 - - N 1027,6 4,7
18.02.2018 06:00:00 -2,5 -3,0 - - - 7 4 - - N 1027,3 4,4
18.02.2018 05:00:00 -2,4 -2,9 - - - 7 4 - - N 1027,1 2,9
18.02.2018 04:00:00 -2,2 -2,6 - - - 7 4 - - N 1026,7 4,7
18.02.2018 03:00:00 -2,0 -2,4 - - - 7 4 - - NNW 1026,3 6
18.02.2018 02:00:00 -1,9 -2,3 - - - 11 6 - - NNW 1026,1 3,8
18.02.2018 01:00:00 -1,6 -2,0 - - - 11 6 - - NW 1025,2 6
18.02.2018 00:00:00 -1,7 -2,0 - - - 7 4 - - WNW 1024,7 1,5
17.02.2018 23:00:00 -1,6 -2,0 - - - 11 6 - - NW 1023,8 1,5
17.02.2018 22:00:00 -1,6 -2,0 - - - 7 4 - - NW 1023,1 1,4
17.02.2018 21:00:00 -1,6 -2,0 - - - 7 4 - - NNW 1022,2 2,5
17.02.2018 20:00:00 -1,6 -2,0 - - - 7 4 - - NNW 1021,8 2,0
17.02.2018 19:00:00 -1,5 -1,9 - - - 7 4 - - N 1021,1 2,9
17.02.2018 18:00:00 -0,9 -1,3 - - - 14 8 - - NNE 1019,7 1,5
17.02.2018 17:00:00 -0,7 -1,1 - - - 14 8 - - NNE 1018,6 2,1
17.02.2018 16:00:00 -0,6 -0,9 - - - 11 6 - - NE 1018,1 1,3
17.02.2018 15:00:00 -0,7 -1,1 0,3 0,9 - 11 6 - - NNE 1018,4 0,6
17.02.2018 14:00:00 -0,7 -1,0 - - - 11 6 - - NNE 1018,5 1,0
17.02.2018 13:00:00 -0,7 -1,0 - - - 7 4 - - ENE 1018,7 2,5
17.02.2018 12:00:00 -1,0 -1,2 - - - 14 8 - - NE 1019,2 2,1
17.02.2018 11:00:00 -1,1 -1,3 - - - 11 6 - - N 1019,9 1,5
17.02.2018 10:00:00 -0,8 -1,0 - - - 22 12 - - ENE 1019,3 20
17.02.2018 09:00:00 -0,6 -0,8 - - - 18 10 - - ENE 1020,9 0,7
17.02.2018 08:00:00 -0,4 -0,6 0,5 1,0 3,4 18 10 - - ENE 1021,1 0,2
17.02.2018 07:00:00 -0,3 -0,5 - - - 18 10 - - ENE 1022,1 0,1

tt = Température de l'air
td = dewpoint
tt -5cm = Température de l'air -5cm
tt -20cm = Température de l'air -20cm
tt -100cm = Température de l'air -100cm
ff = Vitesse du vent
fx = gusts
dd = Direction du vent
ppp = reduced air pressure
vv = visibility

stations d'obs. à proximité